User: anonymous   Login
Location: Unspecified
(0.0000°N, 0.0000°E)
Time: 14:52:50
(UTC+00:00)
Language:

Himawari 4 - Orbit

View from above orbital plane
View from above orbital plane
View from above satellite
View from above satellite

Ground track
Ground track

The orbit data is extracted from the following two-line orbital elements,

1 20217U 89070A   17351.02282166 -.00000057  00000-0  00000+0 0  9992
2 20217  15.7959  12.0114 0041261  65.6207  93.8676  0.97410284102286
Epoch (UTC): 17 December 2017 00:32:51
Eccentricity: 0.0041261
inclination: 15.7959°
perigee height: 36430 km
apogee height: 36785 km
right ascension of ascending node: 12.0114°
argument of perigee: 65.6207°
revolutions per day: 0.97410284
mean anomaly at epoch: 93.8676°
orbit number at epoch: 10228

The dashed part of the orbit path shows where the satellite is in the earth's shadow,  

DLR